| time (UTC) | temp F | wind direction | speed MPH | gust MPH | rain 1hr in | rain 24hr in | rain mn in | humidity % | barometer mb |
| 20260504151013 | 68 | 220 | 7.0 | 16.0 | 0.00 | 0.00 | 0.00 | 56 | 1015.6 |
| 20260504150507 | 68 | 183 | 9.0 | 16.0 | 0.00 | 0.00 | 0.00 | 56 | 1015.6 |
| 20260504141011 | 64 | 190 | 7.0 | 17.0 | 0.00 | 0.00 | 0.00 | 56 | 1016.2 |
| 20260504140509 | 64 | 129 | 8.0 | 17.0 | 0.00 | 0.00 | 0.00 | 56 | 1016.3 |
| 20260504130510 | 60 | 162 | 6.0 | 18.0 | 0.00 | 0.00 | 0.00 | 58 | 1016.2 |
| 20260504110503 | 57 | 219 | 7.0 | 17.0 | 0.00 | 0.00 | 0.00 | 57 | 1015.5 |
| 20260504100505 | 56 | 174 | 3.0 | 6.0 | 0.00 | 0.00 | 0.00 | 59 | 1015.5 |
| 20260504082002 | 54 | 171 | 4.0 | 7.0 | 0.00 | 0.00 | 0.00 | 61 | 1015.9 |
| 20260504081515 | 54 | 160 | 4.0 | 11.0 | 0.00 | 0.00 | 0.00 | 61 | 1016.0 |
| 20260504081004 | 54 | 204 | 6.0 | 11.0 | 0.00 | 0.00 | 0.00 | 61 | 1016.0 |
| 20260504080503 | 53 | 116 | 4.0 | 11.0 | 0.00 | 0.00 | 0.00 | 62 | 1016.0 |
| 20260504050503 | 54 | 196 | 3.0 | 10.0 | 0.00 | 0.01 | 0.00 | 63 | 1017.0 |
| 20260504050012 | 54 | 202 | 4.0 | 8.0 | 0.00 | 0.01 | 0.00 | 63 | 1017.0 |
| 20260504045504 | 54 | 156 | 3.0 | 8.0 | 0.00 | 0.01 | 0.01 | 63 | 1016.9 |
| 20260504045007 | 54 | 203 | 3.0 | 9.0 | 0.00 | 0.01 | 0.01 | 63 | 1016.8 |
| 20260504044533 | 53 | 211 | 4.0 | 12.0 | 0.00 | 0.01 | 0.01 | 63 | 1016.9 |
| 20260504044006 | 53 | 206 | 3.0 | 12.0 | 0.00 | 0.01 | 0.01 | 64 | 1016.9 |
| 20260504043504 | 52 | 215 | 2.0 | 6.0 | 0.00 | 0.01 | 0.01 | 65 | 1016.9 |
| 20260504043022 | 52 | 170 | 3.0 | 9.0 | 0.00 | 0.01 | 0.01 | 65 | 1017.0 |
| 20260504042503 | 52 | 173 | 2.0 | 9.0 | 0.00 | 0.01 | 0.01 | 65 | 1017.0 |
| 20260504042006 | 52 | 156 | 3.0 | 9.0 | 0.00 | 0.01 | 0.01 | 65 | 1017.0 |
| 20260504041503 | 52 | 194 | 2.0 | 5.0 | 0.00 | 0.01 | 0.01 | 64 | 1017.1 |
| 20260504041002 | 52 | 194 | 2.0 | 5.0 | 0.00 | 0.01 | 0.01 | 64 | 1017.0 |
| 20260504040503 | 51 | 194 | 1.0 | 4.0 | 0.00 | 0.01 | 0.01 | 64 | 1017.0 |
| 20260504040007 | 51 | 194 | 1.0 | 5.0 | 0.00 | 0.01 | 0.01 | 66 | 1017.1 |
| 20260504035506 | 50 | 194 | 3.0 | 5.0 | 0.00 | 0.01 | 0.01 | 67 | 1016.9 |
| 20260504035004 | 50 | 144 | 2.0 | 4.0 | 0.00 | 0.01 | 0.01 | 69 | 1017.0 |
| 20260504034512 | 49 | 144 | 2.0 | 4.0 | 0.00 | 0.01 | 0.01 | 70 | 1016.8 |
| 20260504034004 | 49 | 144 | 2.0 | 5.0 | 0.00 | 0.01 | 0.01 | 70 | 1016.8 |
| 20260504033508 | 49 | 144 | 3.0 | 5.0 | 0.00 | 0.01 | 0.01 | 71 | 1016.9 |
| 20260504033018 | 48 | 144 | 2.0 | 5.0 | 0.00 | 0.01 | 0.01 | 71 | 1016.9 |
| 20260504032504 | 48 | 144 | 3.0 | 5.0 | 0.00 | 0.01 | 0.01 | 72 | 1016.9 |
| 20260504032005 | 48 | 144 | 3.0 | 4.0 | 0.00 | 0.01 | 0.01 | 73 | 1017.1 |
| 20260504031524 | 47 | 144 | 2.0 | 4.0 | 0.00 | 0.01 | 0.01 | 74 | 1017.2 |
| 20260504031008 | 47 | 144 | 2.0 | 4.0 | 0.00 | 0.01 | 0.01 | 74 | 1017.3 |
| 20260504030503 | 47 | 145 | 1.0 | 2.0 | 0.00 | 0.01 | 0.01 | 74 | 1017.3 |
| 20260504030004 | 47 | 145 | 0.0 | 0.0 | 0.00 | 0.01 | 0.01 | 73 | 1017.3 |
| 20260504025503 | 48 | 145 | 0.0 | 0.0 | 0.00 | 0.01 | 0.01 | 71 | 1017.3 |
| 20260504025003 | 48 | 145 | 0.0 | 0.0 | 0.00 | 0.01 | 0.01 | 71 | 1017.3 |
| 20260504024515 | 49 | 145 | 0.0 | 2.0 | 0.00 | 0.01 | 0.01 | 70 | 1017.2 |
| 20260504024007 | 49 | 145 | 0.0 | 2.0 | 0.00 | 0.01 | 0.01 | 71 | 1017.2 |
| 20260504023503 | 49 | 144 | 1.0 | 3.0 | 0.00 | 0.01 | 0.01 | 71 | 1017.1 |
| 20260504023012 | 48 | 145 | 1.0 | 3.0 | 0.00 | 0.01 | 0.01 | 71 | 1017.0 |
| 20260504022504 | 48 | 144 | 2.0 | 3.0 | 0.00 | 0.01 | 0.01 | 71 | 1016.9 |
| 20260504022004 | 49 | 144 | 1.0 | 2.0 | 0.00 | 0.01 | 0.01 | 71 | 1016.9 |
| 20260504021525 | 49 | 145 | 1.0 | 2.0 | 0.00 | 0.01 | 0.01 | 69 | 1016.9 |
| 20260504021005 | 49 | 145 | 0.0 | 1.0 | 0.00 | 0.01 | 0.01 | 67 | 1016.9 |
| 20260504020508 | 50 | 145 | 0.0 | 1.0 | 0.00 | 0.01 | 0.01 | 66 | 1016.8 |
| 20260504020021 | 50 | 145 | 0.0 | 1.0 | 0.00 | 0.01 | 0.01 | 66 | 1016.6 |
| 20260504015508 | 50 | 145 | 0.0 | 1.0 | 0.00 | 0.01 | 0.01 | 66 | 1016.6 |
| 20260504015008 | 51 | 145 | 0.0 | 1.0 | 0.00 | 0.01 | 0.01 | 65 | 1016.6 |
| 20260504014507 | 51 | 144 | 0.0 | 1.0 | 0.00 | 0.01 | 0.01 | 64 | 1016.4 |
| 20260504014003 | 51 | 145 | 0.0 | 2.0 | 0.00 | 0.01 | 0.01 | 63 | 1016.3 |
| 20260504013503 | 52 | 144 | 0.0 | 3.0 | 0.00 | 0.01 | 0.01 | 62 | 1016.2 |
| 20260504013011 | 52 | 144 | 1.0 | 3.0 | 0.00 | 0.01 | 0.01 | 62 | 1016.2 |
| 20260504012504 | 53 | 145 | 1.0 | 3.0 | 0.00 | 0.01 | 0.01 | 60 | 1016.2 |
| 20260504012007 | 53 | 144 | 1.0 | 3.0 | 0.00 | 0.01 | 0.01 | 60 | 1016.2 |
| 20260504011514 | 54 | 144 | 1.0 | 2.0 | 0.00 | 0.01 | 0.01 | 57 | 1016.2 |
| 20260504011007 | 54 | 144 | 1.0 | 2.0 | 0.00 | 0.01 | 0.01 | 55 | 1016.3 |
| 20260504010505 | 55 | 144 | 1.0 | 3.0 | 0.00 | 0.01 | 0.01 | 55 | 1016.3 |
| 20260504010020 | 55 | 145 | 1.0 | 3.0 | 0.00 | 0.01 | 0.01 | 54 | 1016.2 |
| 20260504005505 | 56 | 145 | 2.0 | 3.0 | 0.00 | 0.01 | 0.01 | 52 | 1016.3 |
| 20260504005005 | 56 | 145 | 1.0 | 2.0 | 0.00 | 0.01 | 0.01 | 52 | 1016.3 |
| 20260504004526 | 56 | 145 | 0.0 | 3.0 | 0.00 | 0.01 | 0.01 | 52 | 1016.3 |
| 20260504004010 | 56 | 144 | 1.0 | 3.0 | 0.00 | 0.01 | 0.01 | 52 | 1016.2 |
| 20260504003507 | 57 | 145 | 1.0 | 2.0 | 0.00 | 0.01 | 0.01 | 51 | 1016.3 |
| 20260504003025 | 57 | 145 | 0.0 | 3.0 | 0.00 | 0.01 | 0.01 | 51 | 1016.4 |
| 20260504002503 | 57 | 145 | 1.0 | 3.0 | 0.00 | 0.01 | 0.01 | 51 | 1016.4 |
| 20260504002003 | 57 | 125 | 1.0 | 3.0 | 0.00 | 0.02 | 0.01 | 51 | 1016.4 |
| 20260504001518 | 58 | 83 | 1.0 | 2.0 | 0.00 | 0.02 | 0.01 | 50 | 1016.4 |
| 20260504001005 | 58 | 226 | 1.0 | 2.0 | 0.00 | 0.03 | 0.01 | 49 | 1016.4 |
| 20260504000506 | 59 | 226 | 1.0 | 3.0 | 0.00 | 0.04 | 0.01 | 47 | 1016.6 |
| 20260504000015 | 60 | 226 | 1.0 | 6.0 | 0.00 | 0.04 | 0.01 | 46 | 1016.7 |
| 20260503235506 | 61 | 226 | 2.0 | 6.0 | 0.00 | 0.04 | 0.01 | 44 | 1016.8 |
| 20260503235007 | 61 | 226 | 3.0 | 6.0 | 0.00 | 0.04 | 0.01 | 43 | 1017.0 |
| 20260503234520 | 62 | 238 | 2.0 | 5.0 | 0.00 | 0.04 | 0.01 | 41 | 1017.0 |
| 20260503234013 | 63 | 240 | 2.0 | 6.0 | 0.00 | 0.04 | 0.01 | 43 | 1017.1 |
| 20260503233507 | 63 | 240 | 2.0 | 6.0 | 0.00 | 0.04 | 0.01 | 41 | 1017.1 |
| 20260503233026 | 63 | 217 | 2.0 | 9.0 | 0.00 | 0.04 | 0.01 | 42 | 1017.1 |
| 20260503232508 | 63 | 231 | 2.0 | 9.0 | 0.00 | 0.04 | 0.01 | 42 | 1017.1 |
| 20260503232016 | 64 | 246 | 3.0 | 8.0 | 0.00 | 0.04 | 0.01 | 40 | 1017.1 |
| 20260503231526 | 64 | 236 | 2.0 | 7.0 | 0.00 | 0.04 | 0.01 | 43 | 1017.2 |
| 20260503231012 | 63 | 229 | 3.0 | 10.0 | 0.00 | 0.04 | 0.01 | 42 | 1017.2 |
| 20260503230503 | 63 | 224 | 4.0 | 10.0 | 0.00 | 0.04 | 0.01 | 42 | 1017.2 |
| 20260503230016 | 64 | 205 | 4.0 | 13.0 | 0.00 | 0.04 | 0.01 | 42 | 1017.1 |
| 20260503225503 | 64 | 250 | 3.0 | 13.0 | 0.00 | 0.04 | 0.01 | 42 | 1017.2 |
| 20260503225006 | 64 | 221 | 4.0 | 10.0 | 0.00 | 0.04 | 0.01 | 40 | 1017.2 |
| 20260503224518 | 64 | 211 | 2.0 | 12.0 | 0.00 | 0.04 | 0.01 | 43 | 1017.3 |
| 20260503224007 | 64 | 192 | 4.0 | 13.0 | 0.00 | 0.04 | 0.01 | 44 | 1017.4 |
| 20260503223508 | 64 | 189 | 7.0 | 13.0 | 0.00 | 0.04 | 0.01 | 41 | 1017.5 |
| 20260503223021 | 64 | 207 | 6.0 | 13.0 | 0.00 | 0.04 | 0.01 | 42 | 1017.5 |
| 20260503222508 | 64 | 218 | 7.0 | 13.0 | 0.00 | 0.04 | 0.01 | 41 | 1017.5 |
| 20260503222008 | 65 | 186 | 4.0 | 8.0 | 0.00 | 0.04 | 0.01 | 41 | 1017.6 |
| 20260503221533 | 65 | 217 | 2.0 | 7.0 | 0.00 | 0.04 | 0.01 | 44 | 1017.6 |
| 20260503221011 | 65 | 192 | 3.0 | 10.0 | 0.00 | 0.04 | 0.01 | 44 | 1017.6 |
| 20260503220509 | 65 | 252 | 4.0 | 10.0 | 0.00 | 0.04 | 0.01 | 41 | 1017.7 |
| 20260503220026 | 65 | 247 | 2.0 | 13.0 | 0.00 | 0.04 | 0.01 | 41 | 1017.7 |
| 20260503215510 | 64 | 181 | 3.0 | 13.0 | 0.00 | 0.04 | 0.01 | 44 | 1017.8 |
| 20260503215008 | 65 | 198 | 6.0 | 13.0 | 0.00 | 0.04 | 0.01 | 41 | 1017.9 |
| 20260503214516 | 65 | 215 | 2.0 | 8.0 | 0.00 | 0.04 | 0.01 | 43 | 1017.9 |
| 20260503214008 | 65 | 287 | 4.0 | 10.0 | 0.00 | 0.04 | 0.01 | 41 | 1018.0 |
| 20260503213506 | 64 | 211 | 6.0 | 10.0 | 0.00 | 0.04 | 0.01 | 42 | 1018.0 |
| 20260503213029 | 65 | 238 | 3.0 | 8.0 | 0.00 | 0.04 | 0.01 | 41 | 1018.1 |
| 20260503212508 | 65 | 233 | 4.0 | 8.0 | 0.00 | 0.04 | 0.01 | 42 | 1018.1 |
| 20260503212009 | 65 | 298 | 2.0 | 9.0 | 0.00 | 0.04 | 0.01 | 44 | 1018.2 |
| 20260503211525 | 65 | 355 | 4.0 | 9.0 | 0.00 | 0.04 | 0.01 | 39 | 1018.3 |
| 20260503211009 | 66 | 315 | 4.0 | 8.0 | 0.00 | 0.04 | 0.01 | 42 | 1018.3 |
| 20260503210509 | 65 | 242 | 2.0 | 10.0 | 0.00 | 0.04 | 0.01 | 46 | 1018.4 |
| 20260503210028 | 65 | 261 | 2.0 | 10.0 | 0.00 | 0.04 | 0.01 | 40 | 1018.4 |
| 20260503205509 | 65 | 229 | 5.0 | 10.0 | 0.00 | 0.04 | 0.01 | 43 | 1018.5 |
| 20260503205017 | 64 | 213 | 5.0 | 11.0 | 0.00 | 0.04 | 0.01 | 41 | 1018.5 |
| 20260503204528 | 64 | 193 | 5.0 | 11.0 | 0.00 | 0.04 | 0.01 | 41 | 1018.5 |
| 20260503204008 | 64 | 240 | 4.0 | 14.0 | 0.00 | 0.04 | 0.01 | 46 | 1018.6 |
| 20260503203509 | 63 | 191 | 4.0 | 14.0 | 0.00 | 0.04 | 0.01 | 44 | 1018.8 |
| 20260503203017 | 64 | 178 | 6.0 | 13.0 | 0.00 | 0.04 | 0.01 | 45 | 1018.8 |
| 20260503202509 | 64 | 275 | 3.0 | 12.0 | 0.00 | 0.04 | 0.01 | 47 | 1019.0 |
| 20260503202010 | 63 | 178 | 7.0 | 12.0 | 0.00 | 0.04 | 0.01 | 46 | 1019.1 |
| 20260503201529 | 64 | 243 | 5.0 | 12.0 | 0.00 | 0.04 | 0.01 | 48 | 1019.1 |
| 20260503201002 | 65 | 207 | 4.0 | 9.0 | 0.00 | 0.04 | 0.01 | 50 | 1019.3 |
| 20260503200503 | 64 | 233 | 4.0 | 11.0 | 0.00 | 0.04 | 0.01 | 48 | 1019.4 |
| 20260503200010 | 63 | 328 | 3.0 | 11.0 | 0.00 | 0.04 | 0.01 | 51 | 1019.5 |
| 20260503195503 | 62 | 254 | 3.0 | 14.0 | 0.00 | 0.04 | 0.01 | 45 | 1019.5 |
| 20260503195003 | 62 | 213 | 4.0 | 14.0 | 0.00 | 0.04 | 0.01 | 47 | 1019.6 |
| 20260503194510 | 63 | 190 | 6.0 | 14.0 | 0.00 | 0.04 | 0.01 | 47 | 1019.8 |
| 20260503194004 | 63 | 225 | 4.0 | 8.0 | 0.00 | 0.04 | 0.01 | 50 | 1019.9 |
| 20260503193503 | 62 | 124 | 5.0 | 10.0 | 0.00 | 0.04 | 0.01 | 53 | 1019.9 |
| 20260503193018 | 62 | 206 | 4.0 | 10.0 | 0.00 | 0.04 | 0.01 | 51 | 1020.0 |
| 20260503192503 | 62 | 220 | 6.0 | 10.0 | 0.00 | 0.04 | 0.01 | 51 | 1020.1 |
| 20260503192010 | 62 | 233 | 5.0 | 11.0 | 0.00 | 0.04 | 0.01 | 50 | 1020.1 |
| 20260503191522 | 63 | 211 | 6.0 | 11.0 | 0.00 | 0.04 | 0.01 | 53 | 1020.2 |
| 20260503191006 | 62 | 168 | 5.0 | 11.0 | 0.00 | 0.04 | 0.01 | 51 | 1020.3 |
| 20260503190507 | 62 | 155 | 6.0 | 11.0 | 0.00 | 0.04 | 0.01 | 50 | 1020.3 |
| 20260503190025 | 63 | 186 | 6.0 | 10.0 | 0.00 | 0.04 | 0.01 | 49 | 1020.3 |
| 20260503185502 | 61 | 206 | 2.0 | 13.0 | 0.00 | 0.04 | 0.01 | 54 | 1020.4 |
| 20260503185003 | 61 | 179 | 7.0 | 12.0 | 0.00 | 0.04 | 0.01 | 52 | 1020.4 |
| 20260503184509 | 62 | 236 | 3.0 | 14.0 | 0.00 | 0.04 | 0.01 | 51 | 1020.4 |
| 20260503184003 | 62 | 193 | 1.0 | 14.0 | 0.00 | 0.04 | 0.01 | 55 | 1020.5 |
| 20260503183505 | 61 | 202 | 6.0 | 13.0 | 0.00 | 0.04 | 0.01 | 57 | 1020.5 |
| 20260503183023 | 60 | 173 | 3.0 | 13.0 | 0.00 | 0.04 | 0.01 | 54 | 1020.6 |
| 20260503182503 | 61 | 132 | 3.0 | 14.0 | 0.00 | 0.04 | 0.01 | 53 | 1020.7 |
| 20260503182007 | 60 | 170 | 7.0 | 13.0 | 0.00 | 0.04 | 0.01 | 52 | 1020.9 |
| 20260503181528 | 60 | 227 | 7.0 | 13.0 | 0.00 | 0.04 | 0.01 | 53 | 1021.0 |
| 20260503181004 | 59 | 172 | 3.0 | 13.0 | 0.00 | 0.04 | 0.01 | 58 | 1021.0 |
| 20260503180507 | 60 | 212 | 4.0 | 13.0 | 0.00 | 0.04 | 0.01 | 54 | 1021.0 |
| 20260503180025 | 61 | 212 | 4.0 | 12.0 | 0.00 | 0.04 | 0.01 | 56 | 1021.0 |
| 20260503175506 | 60 | 223 | 2.0 | 10.0 | 0.00 | 0.04 | 0.01 | 57 | 1021.0 |
| 20260503175010 | 60 | 153 | 4.0 | 10.0 | 0.00 | 0.04 | 0.01 | 60 | 1021.2 |
| 20260503174523 | 59 | 239 | 5.0 | 10.0 | 0.00 | 0.04 | 0.01 | 53 | 1021.4 |
| 20260503174006 | 60 | 248 | 4.0 | 10.0 | 0.00 | 0.04 | 0.01 | 55 | 1021.4 |
| 20260503173503 | 60 | 250 | 1.0 | 9.0 | 0.00 | 0.04 | 0.01 | 55 | 1021.3 |
| 20260503173036 | 58 | 261 | 2.0 | 9.0 | 0.00 | 0.04 | 0.01 | 54 | 1021.4 |
| 20260503172502 | 59 | 254 | 2.0 | 12.0 | 0.00 | 0.04 | 0.01 | 57 | 1021.4 |
| 20260503172004 | 58 | 202 | 5.0 | 12.0 | 0.00 | 0.04 | 0.01 | 55 | 1021.5 |
| 20260503171514 | 58 | 198 | 3.0 | 10.0 | 0.00 | 0.04 | 0.01 | 53 | 1021.5 |
| 20260503171004 | 58 | 208 | 2.0 | 10.0 | 0.00 | 0.04 | 0.01 | 56 | 1021.6 |
| 20260503170505 | 58 | 236 | 4.0 | 10.0 | 0.00 | 0.04 | 0.01 | 54 | 1021.7 |